Temperature
15 15 16 16 16 16 16 16 16 16 16 16 16 16 16 16 16 16 16 16 16 15 15 15 15 15 15 15 14 14 14 14 14 14 14 14 14 14
15 15 15 16 16 16 16 16 15 15 15 15 15 15 15 16 16 16 16 15 15 15 15 15 15 15 14 14 14 14 14 14 14 14 14 14 14 14
15 15 15 15 15 15 15 15 15 15 15 15 15 15 15 15 15 15 15 15 15 15 15 15 14 14 14 14 14 14 14 14 14 14 14 14 14 14
15 15 15 15 15 15 15 15 15 15 14 14 14 14 14 14 15 15 15 15 15 14 14 14 14 14 14 14 14 14 14 14 14 14 14 14 14 14
15 15 15 14 14 14 14 14 14 14 14 14 14 14 14 14 14 14 14 14 14 14 14 13 13 13 13 13 13 13 13 13 13 13 13 13 13 13
15 14 14 14 14 14 14 14 14 14 14 13 13 13 13 13 13 13 13 13 13 13 13 13 12 12 12 12 12 12 12 12 12 13 13 13 13 13
14 14 14 14 14 14 14 13 13 13 13 13 13 12 12 12 12 12 12 12 12 12 12 12 11 11 11 11 11 11 11 11 11 11 11 11 12 12
14 14 13 13 13 13 13 13 13 12 12 12 12 11 11 11 11 11 11 11 11 11 10 11 10 10 10 10 10 10 10 10 10 10 10 10 11 11
13 13 13 13 12 12 12 12 12 11 11 11 10 10 10 9 9 9 9 9 9 9 9 9 9 9 9 9 9 9 9 9 9 9 9 9 9 10
12 12 12 12 12 11 11 11 11 10 10 9 9 8 8 8 8 8 8 8 8 8 7 7 8 8 8 8 8 8 7 7 8 8 8 8 8 8
12 11 11 11 10 10 10 10 9 9 8 8 7 7 7 7 7 7 7 7 7 7 6 6 6 6 7 7 7 7 7 7 7 7 7 7 7 7
11 10 10 10 9 9 9 8 8 7 7 7 6 6 6 6 6 6 6 5 5 5 5 5 4 4 4 5 6 6 6 6 6 6 6 6 6 6
10 9 9 8 8 8 8 7 7 6 6 6 5 5 5 5 5 5 5 4 4 4 3 3 3 3 3 3 4 5 5 5 5 5 5 5 5 5
9 8 7 7 7 7 6 6 6 5 5 5 5 5 5 4 4 4 4 3 3 3 2 2 2 2 2 2 2 3 4 4 4 4 4 4 5 5
7 7 6 6 6 6 5 5 5 5 4 4 4 4 3 3 3 3 3 3 3 2 2 2 2 2 2 1 1 2 2 3 3 3 3 3 4 4
6 6 5 5 5 5 4 4 4 4 3 3 3 3 3 3 3 2 2 2 2 2 2 2 1 1 1 2 1 2 2 2 2 2 2 3 3 3
5 5 5 5 4 4 4 3 3 3 3 2 2 2 2 2 2 2 1 1 1 1 1 2 1 1 1 1 2 2 1 1 1 1 2 2 3 3
5 5 4 4 4 3 3 3 2 2 2 2 2 1 1 1 1 1 1 1 0 0 0 1 1 1 1 1 1 1 1 1 1 1 1 1 2 2
4 4 4 3 3 2 2 2 2 1 1 1 1 1 1 1 1 1 0 0 0 0 0 0 -0 -0 -1 -0 0 1 0 0 0 0 1 1 1 2
4 3 3 2 2 2 2 1 1 1 1 1 1 0 0 0 0 0 -0 -0 -0 -0 -0 -0 -0 -0 -1 -1 -1 0 0 -0 -0 -0 0 0 1 1
3 3 2 2 1 1 1 1 1 0 0 0 0 -0 -0 -0 -0 -0 -0 -0 -1 -1 -1 -0 -0 -0 -1 -1 -1 -0 0 0 -0 -0 -0 -0 0 1
2 2 2 1 1 1 1 0 0 0 -0 -0 -0 -0 -1 -1 -1 -1 -1 -1 -1 -1 -1 -1 -1 -1 -1 -1 -1 -1 -0 -0 0 0 -0 -0 -1 -1
2 1 1 1 1 1 0 0 -0 -0 -0 -0 -1 -1 -1 -1 -1 -1 -1 -1 -1 -1 -1 -1 -1 -1 -1 -1 -1 -1 -1 -1 -1 -0 0 -0 -0 -0
Wind_Speed
4 4 3 2 2 2 2 3 3 2 2 2 2 3 4 4 5 4 4 6 7 8 9 9 10 10 10 11 12 13 13 13 14 15 15 16 16 16
3 4 3 2 2 2 2 2 2 3 2 2 1 2 4 5 6 4 4 6 6 6 7 8 9 9 10 11 11 12 13 14 15 15 16 17 17 17
4 4 3 3 2 2 2 2 2 2 3 2 1 2 3 4 6 6 6 5 5 6 6 6 7 8 9 10 11 12 13 13 14 15 16 17 17 18
5 4 4 3 3 2 2 2 2 2 2 2 1 2 2 4 4 5 6 6 6 8 9 8 8 8 8 9 9 10 11 12 13 14 14 15 16 17
5 5 4 4 3 2 2 2 1 1 1 1 1 2 2 3 4 4 5 6 7 8 9 10 10 10 9 9 9 8 9 9 10 10 12 13 14 15
4 4 4 4 3 3 2 2 2 2 2 1 1 2 2 2 3 4 4 4 4 6 8 8 9 10 10 10 10 10 9 10 9 10 11 12 13 13
6 5 5 6 6 5 3 3 3 3 2 2 1 2 3 3 3 3 4 5 3 4 5 6 7 7 8 9 9 10 10 11 11 11 11 12 12 12
7 6 6 8 10 11 11 9 7 4 3 2 2 2 3 3 3 3 4 4 3 5 5 6 5 5 7 8 10 11 11 12 12 12 13 14 14 14
6 6 6 7 8 9 12 15 14 14 9 4 4 3 3 3 3 4 4 3 4 5 5 4 4 5 8 9 12 12 12 12 13 15 15 15 15 15
8 7 7 7 7 8 9 11 11 10 10 8 6 5 5 4 3 3 3 3 3 3 4 4 5 6 8 9 9 11 12 14 16 17 17 17 16 16
9 9 9 9 10 10 10 10 9 8 12 15 14 13 14 13 9 5 5 4 4 3 4 4 5 7 7 6 8 12 15 17 17 17 17 18 18 17
9 10 12 11 12 11 9 9 8 6 6 7 9 11 11 12 13 8 5 4 4 3 4 5 5 6 6 5 8 13 14 15 16 16 17 17 18 14
8 8 8 13 13 13 10 8 7 5 6 6 6 6 7 7 9 9 6 3 3 3 5 5 5 5 5 7 8 9 11 12 14 13 14 15 17 14
9 7 8 13 13 12 9 9 9 7 5 5 6 6 6 6 7 8 8 7 4 5 7 5 4 6 7 9 8 8 11 13 11 10 12 15 15 15
9 11 11 12 12 10 12 11 8 6 5 6 6 5 5 5 6 6 7 8 8 6 6 6 6 6 7 8 9 10 10 10 9 10 11 12 11 11
10 11 13 13 10 9 9 8 7 6 5 4 4 4 5 5 6 6 6 7 6 6 8 9 9 8 8 10 10 11 9 7 9 12 12 12 12 12
8 6 6 6 7 6 6 6 5 5 5 4 4 5 6 6 6 6 5 6 6 7 9 8 11 11 9 10 9 9 10 10 11 12 12 13 12 12
8 6 6 6 5 5 4 4 4 5 4 4 5 5 6 7 7 6 6 6 7 8 9 9 10 10 9 7 6 9 10 11 12 12 11 12 13 12
8 6 5 5 4 3 3 3 3 4 4 4 5 6 6 6 7 7 7 7 8 8 9 9 8 8 11 12 8 6 10 12 12 12 11 11 13 13
6 5 4 3 3 3 3 3 3 3 4 5 6 6 6 6 7 7 7 8 9 9 9 9 8 9 9 10 10 12 14 12 11 12 12 12 12 13
5 4 3 3 2 2 2 2 3 3 5 5 6 6 6 6 7 7 7 9 8 8 10 10 10 14 10 8 9 10 11 13 13 11 12 12 12 11
3 3 2 2 2 2 2 2 3 4 5 5 6 6 6 6 7 8 8 8 8 9 10 10 11 10 8 9 11 12 13 14 14 15 13 11 9 9
2 2 2 1 1 1 2 3 4 4 5 5 6 6 6 6 6 7 8 8 8 10 10 10 10 9 9 10 11 12 14 14 12 12 11 13 16 16
Wind_Direction
167 163 156 159 166 169 160 159 157 191 267 304 319 340 342 335 321 299 283 292 290 284 280 279 278 278 279 279 278 277 275 272 270 268 267 266 265 265
161 157 152 147 148 151 159 160 162 170 217 266 289 328 348 355 360 347 325 320 314 308 300 295 291 288 287 286 285 284 281 278 275 272 269 268 267 266
158 158 159 147 144 149 141 146 159 164 205 266 289 329 356 8 13 16 12 5 353 346 335 325 317 309 303 297 294 291 287 284 280 276 273 270 268 267
167 158 163 150 140 139 140 153 169 183 198 237 319 350 5 8 8 13 15 16 12 15 14 5 353 342 332 323 317 311 304 298 293 287 282 277 273 269
159 157 159 146 140 133 130 135 141 148 166 184 331 359 1 8 2 8 14 11 12 18 20 17 14 9 3 359 355 350 341 328 318 309 301 294 287 282
132 131 132 137 139 134 120 114 111 101 93 95 45 5 353 352 7 1 356 360 359 11 11 10 14 15 13 13 9 5 359 352 343 332 323 313 302 294
103 98 98 99 99 99 100 99 101 97 91 81 57 28 14 9 6 352 349 343 353 10 353 357 1 6 4 360 358 359 0 357 351 342 335 327 319 311
109 94 85 81 83 80 79 75 75 84 89 84 64 46 22 6 355 357 353 354 341 357 345 336 351 352 352 348 346 348 348 347 345 341 336 329 320 313
103 97 89 80 82 86 79 71 63 60 66 89 77 51 25 2 354 357 357 347 320 328 331 319 334 336 339 337 341 345 348 348 344 337 331 325 320 314
89 93 95 86 85 93 89 79 70 59 59 67 73 55 41 21 16 359 336 327 309 337 351 319 328 326 325 321 331 342 343 339 335 332 328 324 319 314
79 79 87 84 79 90 92 86 75 61 61 64 64 58 50 43 38 32 17 6 348 344 0 336 325 321 311 305 322 333 332 330 327 325 324 322 319 315
83 75 74 82 80 81 87 88 79 58 55 53 48 43 40 38 36 34 20 7 349 334 355 342 328 332 316 307 321 325 324 322 321 318 318 319 320 318
93 83 77 80 80 79 81 83 88 85 71 63 51 39 32 29 24 20 16 6 346 324 334 337 321 324 308 308 311 312 316 318 318 315 316 316 315 312
98 93 89 84 80 77 78 80 78 74 68 58 47 33 23 15 5 358 357 351 323 295 306 321 313 314 312 308 307 309 312 313 313 314 319 318 313 306
96 97 92 87 80 73 69 68 66 66 62 53 40 25 6 351 350 348 349 346 335 327 334 329 319 311 302 300 304 306 312 313 312 317 319 316 313 311
94 88 82 74 72 66 59 55 54 57 60 49 27 7 356 355 357 353 345 344 338 331 328 326 323 314 306 301 298 300 305 306 312 317 316 311 307 304
106 91 81 76 69 61 56 49 45 44 43 31 19 6 358 354 349 347 341 340 337 330 330 330 329 317 295 290 297 301 308 312 314 317 316 313 309 307
99 91 85 79 74 65 57 48 39 32 24 16 9 360 351 345 340 339 338 336 332 328 326 326 331 331 327 314 268 298 311 316 317 316 315 312 311 313
91 90 86 81 73 63 54 44 29 16 9 5 358 349 342 337 335 334 334 332 328 324 322 324 328 333 330 329 318 297 311 316 316 317 317 314 310 311
90 94 90 83 74 62 49 38 21 7 1 354 348 344 340 334 331 330 329 328 324 322 322 324 327 328 320 312 307 308 308 309 315 316 317 314 308 301
93 93 91 86 74 59 39 20 5 355 349 344 343 340 337 331 327 325 323 321 321 322 323 321 317 314 307 302 306 314 317 314 309 310 316 317 318 317
102 100 91 85 71 43 19 3 353 347 344 342 337 335 332 327 323 322 321 321 320 317 315 314 316 319 319 316 317 317 320 323 321 315 308 304 315 317
115 108 93 73 48 20 2 351 343 338 337 333 330 328 327 325 321 317 316 316 316 319 321 321 323 322 320 317 317 319 322 327 329 328 327 326 320 312
Height
1563 1565 1566 1567 1569 1570 1570 1571 1572 1571 1571 1571 1572 1571 1571 1571 1571 1571 1571 1570 1570 1570 1570 1569 1569 1568 1567 1567 1566 1565 1565 1564 1564 1564 1563 1563 1563 1562
1561 1563 1564 1565 1566 1567 1568 1568 1569 1569 1569 1569 1569 1569 1568 1568 1568 1568 1567 1567 1567 1566 1566 1565 1564 1564 1563 1562 1562 1561 1560 1560 1559 1558 1558 1557 1557 1557
1559 1561 1562 1563 1564 1565 1565 1566 1566 1567 1567 1567 1566 1566 1566 1565 1565 1564 1564 1563 1563 1562 1562 1561 1560 1559 1558 1557 1556 1555 1555 1554 1553 1553 1552 1552 1551 1550
1557 1558 1560 1561 1562 1562 1563 1563 1563 1564 1564 1563 1563 1563 1562 1561 1561 1560 1559 1559 1558 1557 1556 1556 1555 1554 1553 1552 1550 1549 1549 1548 1547 1546 1545 1545 1544 1543
1555 1556 1557 1558 1559 1560 1560 1560 1561 1561 1560 1560 1560 1559 1558 1558 1557 1556 1555 1554 1553 1552 1551 1550 1549 1548 1546 1545 1544 1543 1542 1541 1540 1539 1538 1537 1536 1535
1552 1554 1555 1556 1557 1557 1557 1557 1557 1557 1557 1557 1556 1555 1555 1553 1552 1552 1551 1550 1548 1547 1546 1544 1543 1542 1540 1539 1538 1536 1535 1533 1532 1531 1530 1529 1528 1527
1550 1551 1552 1553 1554 1554 1555 1554 1554 1554 1554 1553 1553 1552 1551 1550 1549 1547 1546 1545 1544 1542 1541 1539 1538 1536 1535 1533 1532 1530 1528 1527 1525 1523 1522 1521 1520 1519
1547 1549 1550 1551 1551 1552 1552 1551 1552 1551 1551 1550 1549 1549 1548 1547 1545 1544 1542 1541 1539 1538 1536 1535 1533 1531 1529 1528 1526 1524 1522 1520 1518 1516 1515 1513 1512 1510
1545 1547 1548 1548 1549 1549 1549 1549 1549 1549 1548 1548 1547 1546 1545 1543 1542 1541 1539 1538 1536 1534 1532 1529 1528 1526 1524 1522 1520 1518 1516 1514 1512 1510 1507 1505 1503 1502
1543 1545 1546 1546 1547 1547 1547 1546 1546 1546 1545 1545 1544 1543 1542 1541 1540 1539 1537 1535 1533 1531 1528 1526 1523 1521 1519 1517 1515 1513 1510 1507 1505 1502 1500 1498 1496 1493
1542 1543 1544 1545 1545 1545 1545 1545 1544 1544 1544 1543 1542 1541 1540 1539 1537 1536 1534 1531 1529 1527 1524 1522 1519 1516 1513 1512 1510 1507 1504 1501 1498 1496 1493 1490 1488 1485
1540 1541 1542 1543 1544 1544 1544 1544 1544 1543 1543 1542 1541 1540 1538 1537 1535 1533 1531 1529 1526 1524 1521 1519 1515 1512 1508 1506 1504 1501 1498 1495 1492 1489 1486 1483 1480 1477
1539 1540 1541 1543 1543 1543 1543 1543 1543 1543 1542 1541 1540 1538 1537 1535 1533 1531 1529 1526 1524 1521 1519 1515 1512 1509 1506 1500 1497 1495 1492 1488 1485 1482 1479 1476 1474 1471
1539 1541 1542 1543 1543 1543 1543 1542 1542 1542 1541 1540 1538 1536 1535 1533 1530 1528 1526 1524 1521 1519 1515 1512 1509 1506 1501 1496 1492 1489 1487 1483 1479 1476 1472 1469 1467 1464
1540 1541 1543 1543 1544 1544 1543 1543 1542 1541 1540 1538 1536 1534 1533 1531 1528 1525 1523 1521 1518 1515 1512 1509 1505 1502 1498 1494 1489 1485 1481 1478 1475 1471 1467 1464 1460 1457
1541 1543 1544 1544 1544 1544 1544 1543 1542 1540 1539 1537 1535 1533 1531 1529 1526 1522 1519 1516 1514 1511 1509 1505 1502 1498 1494 1490 1486 1481 1478 1474 1470 1467 1462 1458 1455 1451
1543 1544 1544 1544 1544 1544 1543 1543 1542 1540 1538 1536 1534 1532 1529 1526 1523 1520 1517 1513 1510 1507 1504 1501 1498 1494 1490 1487 1482 1479 1475 1470 1466 1462 1457 1452 1449 1446
1544 1544 1544 1544 1544 1544 1543 1542 1541 1539 1537 1535 1533 1530 1527 1524 1521 1518 1515 1512 1508 1505 1501 1497 1493 1489 1485 1482 1480 1475 1471 1466 1462 1457 1453 1448 1443 1440
1545 1545 1545 1545 1544 1544 1543 1542 1540 1538 1536 1534 1531 1528 1525 1522 1519 1516 1513 1509 1506 1503 1499 1495 1491 1487 1482 1478 1475 1472 1467 1462 1457 1453 1449 1444 1439 1435
1545 1545 1545 1545 1545 1544 1542 1541 1539 1537 1535 1533 1530 1527 1523 1520 1517 1513 1510 1507 1503 1500 1496 1493 1490 1485 1481 1477 1471 1467 1465 1459 1454 1449 1444 1440 1435 1431
1546 1546 1546 1545 1545 1543 1542 1540 1539 1536 1534 1531 1528 1525 1521 1518 1515 1511 1508 1505 1501 1497 1493 1490 1487 1484 1479 1474 1469 1464 1460 1457 1452 1447 1441 1436 1430 1426
1547 1547 1546 1545 1544 1543 1542 1540 1538 1535 1532 1529 1526 1523 1519 1516 1513 1509 1506 1502 1498 1495 1491 1487 1484 1480 1476 1472 1466 1461 1456 1452 1448 1444 1440 1435 1430 1423
1547 1547 1546 1545 1544 1543 1541 1539 1536 1533 1530 1527 1524 1520 1517 1514 1510 1507 1503 1500 1496 1492 1488 1484 1480 1477 1473 1469 1464 1459 1454 1449 1444 1439 1435 1431 1427 1423